| time (UTC) | temp F | wind direction | speed knots | gust knots | rain 1hr in | rain 24hr in | rain mn in | humidity % | barometer mb |
| 20260503054828 | 68 | 359 | 2.6 | 6.1 | 0.01 | 0.09 | 0.01 | 97 | 1014.6 |
| 20260503054328 | 69 | 4 | 1.7 | 6.1 | 0.01 | 0.09 | 0.01 | 98 | 1014.7 |
| 20260503053828 | 70 | 16 | 0.0 | 3.5 | 0.01 | 0.09 | 0.01 | 99 | 1014.8 |
| 20260503053328 | 70 | 222 | 0.0 | 2.6 | 0.01 | 0.09 | 0.01 | 99 | 1014.8 |
| 20260503052828 | 70 | 231 | 0.9 | 2.6 | 0.01 | 0.09 | 0.01 | 99 | 1014.8 |
| 20260503051758 | 70 | 236 | 0.9 | 2.6 | 0.01 | 0.09 | 0.01 | 99 | 1014.8 |
| 20260503051258 | 70 | 231 | 0.9 | 2.6 | 0.01 | 0.09 | 0.01 | 99 | 1014.7 |
| 20260503050728 | 70 | 194 | 0.9 | 3.5 | 0.01 | 0.09 | 0.01 | 99 | 1014.8 |
| 20260503050158 | 70 | 219 | 1.7 | 4.3 | 0.01 | 0.09 | 0.01 | 99 | 1014.7 |
| 20260503045658 | 70 | 241 | 1.7 | 4.3 | 0.00 | 0.08 | 0.00 | 99 | 1015.0 |
| 20260503045128 | 70 | 247 | 1.7 | 5.2 | 0.00 | 0.08 | 0.00 | 99 | 1015.0 |
| 20260503044628 | 70 | 242 | 2.6 | 5.2 | 0.01 | 0.08 | 0.00 | 99 | 1015.0 |
| 20260503044101 | 70 | 238 | 2.6 | 4.3 | 0.01 | 0.08 | 0.00 | 99 | 1014.9 |
| 20260503043528 | 70 | 240 | 2.6 | 6.1 | 0.01 | 0.08 | 0.00 | 99 | 1014.9 |
| 20260503041928 | 70 | 236 | 2.6 | 6.1 | 0.01 | 0.08 | 0.00 | 99 | 1014.7 |
| 20260503041428 | 70 | 241 | 2.6 | 6.1 | 0.02 | 0.08 | 0.00 | 99 | 1014.7 |
| 20260503040428 | 70 | 241 | 2.6 | 4.3 | 0.02 | 0.08 | 0.00 | 99 | 1014.4 |
| 20260503035928 | 70 | 238 | 1.7 | 5.2 | 0.02 | 0.08 | 0.08 | 99 | 1014.1 |
| 20260503035428 | 70 | 236 | 1.7 | 5.2 | 0.02 | 0.08 | 0.08 | 98 | 1013.9 |
| 20260503034928 | 70 | 235 | 1.7 | 3.5 | 0.02 | 0.08 | 0.08 | 98 | 1013.8 |
| 20260503034358 | 70 | 258 | 0.9 | 2.6 | 0.01 | 0.07 | 0.07 | 98 | 1013.8 |
| 20260503033828 | 70 | 290 | 0.9 | 1.7 | 0.01 | 0.07 | 0.07 | 98 | 1013.7 |
| 20260503033328 | 70 | 269 | 0.9 | 1.7 | 0.01 | 0.07 | 0.07 | 98 | 1013.7 |
| 20260503032258 | 70 | 257 | 1.7 | 3.5 | 0.01 | 0.07 | 0.07 | 97 | 1013.4 |
| 20260503031728 | 70 | 261 | 1.7 | 3.5 | 0.01 | 0.07 | 0.07 | 97 | 1013.4 |
| 20260503031228 | 71 | 259 | 1.7 | 3.5 | 0.00 | 0.06 | 0.06 | 96 | 1013.6 |
| 20260503030728 | 71 | 255 | 1.7 | 3.5 | 0.00 | 0.06 | 0.06 | 96 | 1013.6 |
| 20260503030158 | 71 | 251 | 1.7 | 3.5 | 0.00 | 0.06 | 0.06 | 96 | 1013.6 |
| 20260503025659 | 71 | 249 | 1.7 | 4.3 | 0.00 | 0.06 | 0.06 | 96 | 1013.6 |
| 20260503025127 | 71 | 247 | 1.7 | 4.3 | 0.00 | 0.06 | 0.06 | 96 | 1013.5 |
| 20260503024628 | 71 | 250 | 1.7 | 3.5 | 0.00 | 0.06 | 0.06 | 96 | 1013.4 |
| 20260503023558 | 71 | 261 | 1.7 | 3.5 | 0.00 | 0.06 | 0.06 | 96 | 1013.4 |
| 20260503023058 | 71 | 263 | 1.7 | 2.6 | 0.00 | 0.06 | 0.06 | 96 | 1013.2 |
| 20260503022528 | 71 | 261 | 1.7 | 4.3 | 0.00 | 0.06 | 0.06 | 96 | 1013.0 |
| 20260503022028 | 71 | 259 | 1.7 | 4.3 | 0.00 | 0.06 | 0.06 | 96 | 1013.0 |
| 20260503021458 | 71 | 254 | 1.7 | 3.5 | 0.00 | 0.06 | 0.06 | 96 | 1012.9 |
| 20260503020958 | 71 | 245 | 1.7 | 3.5 | 0.00 | 0.06 | 0.06 | 96 | 1012.8 |
| 20260503020428 | 71 | 251 | 1.7 | 3.5 | 0.00 | 0.06 | 0.06 | 96 | 1012.8 |
| 20260503015858 | 71 | 264 | 0.9 | 3.5 | 0.00 | 0.06 | 0.06 | 97 | 1012.6 |
| 20260503015358 | 71 | 266 | 1.7 | 3.5 | 0.00 | 0.06 | 0.06 | 97 | 1012.5 |
| 20260503014357 | 71 | 257 | 1.7 | 3.5 | 0.00 | 0.06 | 0.06 | 97 | 1012.8 |
| 20260503013858 | 71 | 252 | 1.7 | 3.5 | 0.00 | 0.06 | 0.06 | 98 | 1012.5 |
| 20260503013357 | 71 | 249 | 1.7 | 3.5 | 0.00 | 0.06 | 0.06 | 98 | 1012.4 |
| 20260503012828 | 71 | 249 | 1.7 | 6.1 | 0.00 | 0.06 | 0.06 | 98 | 1012.4 |
| 20260503012258 | 71 | 245 | 1.7 | 7.0 | 0.00 | 0.06 | 0.06 | 98 | 1012.3 |
| 20260503011758 | 71 | 242 | 2.6 | 7.8 | 0.00 | 0.06 | 0.06 | 98 | 1012.5 |
| 20260503011228 | 71 | 240 | 2.6 | 7.8 | 0.00 | 0.06 | 0.06 | 98 | 1012.3 |
| 20260503010658 | 71 | 242 | 2.6 | 6.1 | 0.00 | 0.06 | 0.06 | 98 | 1012.2 |
| 20260503010128 | 71 | 241 | 2.6 | 6.1 | 0.00 | 0.06 | 0.06 | 98 | 1012.3 |
| 20260503005558 | 71 | 236 | 0.9 | 6.1 | 0.00 | 0.06 | 0.06 | 98 | 1012.1 |
| 20260503004458 | 71 | 283 | 0.0 | 0.9 | 0.00 | 0.06 | 0.06 | 98 | 1010.7 |
| 20260503003358 | 71 | 283 | 0.0 | 1.7 | 0.00 | 0.06 | 0.06 | 98 | 1011.1 |
| 20260503002858 | 71 | 277 | 0.9 | 3.5 | 0.00 | 0.06 | 0.06 | 98 | 1011.4 |
| 20260503002358 | 71 | 275 | 1.7 | 3.5 | 0.00 | 0.06 | 0.06 | 98 | 1011.5 |
| 20260503001828 | 71 | 274 | 0.9 | 2.6 | 0.00 | 0.06 | 0.06 | 98 | 1011.5 |
| 20260503001258 | 71 | 271 | 0.9 | 1.7 | 0.00 | 0.06 | 0.06 | 98 | 1011.3 |
| 20260503000758 | 71 | 258 | 0.9 | 1.7 | 0.00 | 0.06 | 0.06 | 98 | 1011.5 |
| 20260502235727 | 71 | 231 | 0.9 | 1.7 | 0.01 | 0.06 | 0.06 | 98 | 1011.0 |
| 20260502235157 | 71 | 261 | 0.9 | 1.7 | 0.01 | 0.06 | 0.06 | 98 | 1010.6 |
| 20260502234628 | 71 | 326 | 0.9 | 1.7 | 0.02 | 0.06 | 0.06 | 98 | 1010.7 |
| 20260502234128 | 71 | 5 | 0.9 | 2.6 | 0.02 | 0.06 | 0.06 | 98 | 1010.8 |
| 20260502233557 | 71 | 339 | 0.9 | 2.6 | 0.03 | 0.06 | 0.06 | 97 | 1010.6 |
| 20260502233027 | 71 | 263 | 1.7 | 6.1 | 0.03 | 0.06 | 0.06 | 97 | 1010.7 |
| 20260502232527 | 71 | 258 | 1.7 | 6.1 | 0.03 | 0.06 | 0.06 | 97 | 1011.0 |
| 20260502231958 | 71 | 251 | 2.6 | 6.1 | 0.03 | 0.06 | 0.06 | 97 | 1011.2 |
| 20260502230858 | 71 | 181 | 2.6 | 5.2 | 0.03 | 0.06 | 0.06 | 97 | 1010.3 |
| 20260502230359 | 71 | 182 | 1.7 | 5.2 | 0.03 | 0.06 | 0.06 | 97 | 1010.1 |
| 20260502225858 | 71 | 239 | 1.7 | 7.0 | 0.02 | 0.05 | 0.05 | 97 | 1010.5 |
| 20260502225327 | 71 | 240 | 1.7 | 7.0 | 0.02 | 0.05 | 0.05 | 96 | 1011.1 |
| 20260502224758 | 71 | 241 | 1.7 | 4.3 | 0.01 | 0.04 | 0.04 | 96 | 1011.5 |
| 20260502224228 | 71 | 250 | 1.7 | 6.1 | 0.01 | 0.04 | 0.04 | 96 | 1011.7 |
| 20260502223728 | 71 | 252 | 2.6 | 6.1 | 0.00 | 0.03 | 0.03 | 95 | 1011.7 |
| 20260502223228 | 71 | 238 | 2.6 | 7.0 | 0.00 | 0.03 | 0.03 | 95 | 1011.6 |
| 20260502222158 | 71 | 193 | 2.6 | 6.1 | 0.00 | 0.03 | 0.03 | 95 | 1010.7 |
| 20260502221627 | 71 | 191 | 2.6 | 7.0 | 0.00 | 0.03 | 0.03 | 95 | 1010.8 |
| 20260502221341 | 71 | 190 | 2.6 | 7.0 | 0.00 | 0.03 | 0.03 | 95 | 1010.9 |
| 20260502221128 | 71 | 190 | 2.6 | 7.0 | 0.00 | 0.03 | 0.03 | 95 | 1010.9 |
| 20260502220058 | 70 | 235 | 3.5 | 7.8 | 0.01 | 0.03 | 0.03 | 95 | 1011.2 |
| 20260502215528 | 70 | 239 | 2.6 | 7.8 | 0.01 | 0.03 | 0.03 | 95 | 1011.3 |
| 20260502215422 | 70 | 237 | 2.6 | 6.1 | 0.02 | 0.03 | 0.03 | 95 | 1011.2 |
| 20260502215027 | 70 | 237 | 2.6 | 6.1 | 0.02 | 0.03 | 0.03 | 95 | 1011.2 |
| 20260502214527 | 70 | 225 | 1.7 | 6.1 | 0.02 | 0.03 | 0.03 | 96 | 1011.0 |
| 20260502213957 | 70 | 236 | 1.7 | 3.5 | 0.02 | 0.03 | 0.03 | 95 | 1010.9 |
| 20260502213458 | 70 | 264 | 1.7 | 3.5 | 0.02 | 0.03 | 0.03 | 95 | 1011.1 |
| 20260502212958 | 70 | 270 | 2.6 | 7.0 | 0.02 | 0.03 | 0.03 | 95 | 1011.3 |
| 20260502211857 | 70 | 274 | 3.5 | 7.0 | 0.02 | 0.03 | 0.03 | 94 | 1011.3 |
| 20260502210827 | 70 | 272 | 2.6 | 10.4 | 0.02 | 0.03 | 0.03 | 94 | 1011.5 |
| 20260502205728 | 70 | 273 | 1.7 | 6.1 | 0.02 | 0.02 | 0.02 | 93 | 1011.3 |
| 20260502205329 | 70 | 277 | 1.7 | 6.1 | 0.02 | 0.02 | 0.02 | 92 | 1011.1 |
| 20260502205228 | 70 | 277 | 1.7 | 6.1 | 0.02 | 0.02 | 0.02 | 92 | 1011.1 |
| 20260502204834 | 70 | 278 | 2.6 | 7.0 | 0.01 | 0.01 | 0.01 | 91 | 1011.0 |
| 20260502204728 | 70 | 278 | 2.6 | 7.0 | 0.01 | 0.01 | 0.01 | 91 | 1011.0 |
| 20260502204228 | 71 | 272 | 2.6 | 7.0 | 0.01 | 0.01 | 0.01 | 91 | 1010.9 |
| 20260502203728 | 71 | 276 | 2.6 | 6.1 | 0.01 | 0.01 | 0.01 | 90 | 1011.4 |
| 20260502203157 | 71 | 294 | 1.7 | 3.5 | 0.01 | 0.01 | 0.01 | 89 | 1011.1 |
| 20260502202158 | 71 | 302 | 2.6 | 5.2 | 0.01 | 0.01 | 0.01 | 89 | 1011.5 |
| 20260502200628 | 74 | 317 | 6.1 | 12.2 | 0.01 | 0.01 | 0.01 | 84 | 1011.9 |
| 20260502200058 | 78 | 303 | 7.0 | 12.2 | 0.00 | 0.00 | 0.00 | 75 | 1011.7 |
| 20260502195527 | 82 | 278 | 5.2 | 12.2 | 0.00 | 0.00 | 0.00 | 79 | 1011.8 |
| 20260502194958 | 82 | 279 | 3.5 | 7.8 | 0.00 | 0.00 | 0.00 | 78 | 1011.3 |
| 20260502194457 | 82 | 268 | 3.5 | 10.4 | 0.00 | 0.00 | 0.00 | 78 | 1011.2 |
| 20260502193958 | 83 | 263 | 4.3 | 10.4 | 0.00 | 0.00 | 0.00 | 78 | 1011.2 |
| 20260502193458 | 83 | 264 | 3.5 | 10.4 | 0.00 | 0.00 | 0.00 | 78 | 1011.2 |
| 20260502192957 | 83 | 260 | 3.5 | 10.4 | 0.00 | 0.00 | 0.00 | 77 | 1011.1 |
| 20260502192457 | 83 | 263 | 3.5 | 7.0 | 0.00 | 0.00 | 0.00 | 78 | 1011.0 |
| 20260502191927 | 83 | 268 | 3.5 | 7.0 | 0.00 | 0.00 | 0.00 | 78 | 1010.9 |
| 20260502191357 | 83 | 272 | 3.5 | 8.7 | 0.00 | 0.00 | 0.00 | 78 | 1011.1 |
| 20260502190827 | 83 | 275 | 4.3 | 9.6 | 0.00 | 0.00 | 0.00 | 77 | 1011.1 |
| 20260502190330 | 83 | 276 | 4.3 | 9.6 | 0.00 | 0.00 | 0.00 | 77 | 1011.3 |
| 20260502185757 | 84 | 272 | 4.3 | 8.7 | 0.00 | 0.00 | 0.00 | 76 | 1011.2 |
| 20260502184757 | 84 | 257 | 5.2 | 11.3 | 0.00 | 0.00 | 0.00 | 74 | 1011.0 |
| 20260502184228 | 84 | 259 | 5.2 | 9.6 | 0.00 | 0.00 | 0.00 | 72 | 1011.1 |
| 20260502183728 | 84 | 264 | 5.2 | 9.6 | 0.00 | 0.00 | 0.00 | 72 | 1011.0 |
| 20260502183157 | 84 | 266 | 5.2 | 12.2 | 0.00 | 0.00 | 0.00 | 71 | 1011.2 |
| 20260502182628 | 85 | 264 | 4.3 | 12.2 | 0.00 | 0.00 | 0.00 | 71 | 1011.3 |
| 20260502182127 | 85 | 261 | 4.3 | 11.3 | 0.00 | 0.00 | 0.00 | 71 | 1011.3 |
| 20260502181627 | 85 | 256 | 4.3 | 12.2 | 0.00 | 0.00 | 0.00 | 71 | 1011.2 |
| 20260502181128 | 85 | 255 | 4.3 | 12.2 | 0.00 | 0.00 | 0.00 | 71 | 1011.1 |
| 20260502180628 | 85 | 257 | 5.2 | 11.3 | 0.00 | 0.00 | 0.00 | 71 | 1011.1 |
| 20260502170158 | 84 | 271 | 2.6 | 7.0 | 0.00 | 0.00 | 0.00 | 73 | 1011.1 |
| 20260502163958 | 84 | 264 | 2.6 | 7.0 | 0.00 | 0.00 | 0.00 | 73 | 1011.3 |
| 20260502163458 | 85 | 250 | 2.6 | 9.6 | 0.00 | 0.00 | 0.00 | 73 | 1011.2 |
| 20260502161927 | 85 | 246 | 4.3 | 9.6 | 0.00 | 0.00 | 0.00 | 72 | 1011.5 |
| 20260502160927 | 85 | 246 | 3.5 | 11.3 | 0.00 | 0.00 | 0.00 | 73 | 1011.5 |
| 20260502152228 | 82 | 237 | 2.6 | 8.7 | 0.00 | 0.00 | 0.00 | 80 | 1011.7 |
| 20260502151727 | 81 | 249 | 2.6 | 8.7 | 0.00 | 0.00 | 0.00 | 80 | 1011.8 |
| 20260502151228 | 81 | 259 | 3.5 | 7.8 | 0.00 | 0.00 | 0.00 | 81 | 1011.8 |
| 20260502150728 | 81 | 254 | 2.6 | 7.8 | 0.00 | 0.00 | 0.00 | 81 | 1011.7 |
| 20260502150227 | 81 | 243 | 2.6 | 7.0 | 0.00 | 0.00 | 0.00 | 81 | 1011.7 |
| 20260502140128 | 78 | 239 | 3.5 | 8.7 | 0.00 | 0.00 | 0.00 | 84 | 1011.6 |
| 20260502123257 | 73 | 193 | 2.6 | 7.0 | 0.00 | 0.00 | 0.00 | 93 | 1010.8 |
| 20260502122157 | 72 | 197 | 1.7 | 5.2 | 0.00 | 0.00 | 0.00 | 94 | 1010.8 |
| 20260502120848 | 72 | 200 | 1.7 | 6.1 | 0.00 | 0.00 | 0.00 | 95 | 1010.6 |
| 20260502120628 | 72 | 200 | 1.7 | 6.1 | 0.00 | 0.00 | 0.00 | 95 | 1010.6 |
| 20260502115557 | 71 | 204 | 1.7 | 6.1 | 0.00 | 0.00 | 0.00 | 97 | 1010.9 |
| 20260502115027 | 71 | 206 | 2.6 | 6.1 | 0.00 | 0.00 | 0.00 | 98 | 1010.9 |
| 20260502114457 | 71 | 201 | 1.7 | 5.2 | 0.00 | 0.00 | 0.00 | 98 | 1010.7 |
| 20260502113957 | 71 | 208 | 1.7 | 4.3 | 0.00 | 0.00 | 0.00 | 98 | 1010.8 |
| 20260502113458 | 71 | 203 | 2.6 | 5.2 | 0.00 | 0.00 | 0.00 | 98 | 1010.8 |
| 20260502112927 | 71 | 197 | 2.6 | 6.1 | 0.00 | 0.00 | 0.00 | 98 | 1010.7 |
| 20260502112357 | 71 | 199 | 1.7 | 6.1 | 0.00 | 0.00 | 0.00 | 99 | 1010.7 |
| 20260502111858 | 71 | 190 | 1.7 | 5.2 | 0.00 | 0.00 | 0.00 | 99 | 1010.6 |
| 20260502111357 | 71 | 195 | 1.7 | 6.1 | 0.00 | 0.00 | 0.00 | 99 | 1010.7 |
| 20260502110828 | 71 | 207 | 1.7 | 6.1 | 0.00 | 0.00 | 0.00 | 99 | 1010.7 |
| 20260502105727 | 71 | 243 | 0.9 | 3.5 | 0.00 | 0.00 | 0.00 | 99 | 1010.6 |
| 20260502104227 | 71 | 235 | 0.9 | 3.5 | 0.00 | 0.00 | 0.00 | 99 | 1010.4 |
| 20260502103727 | 70 | 240 | 0.9 | 3.5 | 0.00 | 0.00 | 0.00 | 99 | 1010.3 |
| 20260502103227 | 70 | 228 | 0.9 | 3.5 | 0.00 | 0.00 | 0.00 | 99 | 1010.3 |
| 20260502102127 | 70 | 212 | 0.9 | 2.6 | 0.00 | 0.00 | 0.00 | 99 | 1010.1 |
| 20260502101628 | 70 | 210 | 0.9 | 2.6 | 0.00 | 0.00 | 0.00 | 99 | 1010.2 |
| 20260502101057 | 70 | 215 | 0.9 | 2.6 | 0.00 | 0.00 | 0.00 | 99 | 1010.2 |
| 20260502100558 | 70 | 211 | 0.9 | 2.6 | 0.00 | 0.00 | 0.00 | 99 | 1010.2 |
| 20260502091327 | 70 | 241 | 0.9 | 2.6 | 0.00 | 0.00 | 0.00 | 97 | 1010.8 |
| 20260502090757 | 70 | 242 | 1.7 | 2.6 | 0.00 | 0.00 | 0.00 | 97 | 1010.8 |
| 20260502090257 | 70 | 241 | 1.7 | 4.3 | 0.00 | 0.00 | 0.00 | 98 | 1010.9 |
| 20260502071227 | 70 | 237 | 0.9 | 1.7 | 0.00 | 0.00 | 0.00 | 96 | 1011.2 |
| 20260502070158 | 71 | 246 | 0.9 | 2.6 | 0.00 | 0.00 | 0.00 | 95 | 1011.1 |
| 20260502065627 | 71 | 247 | 1.7 | 2.6 | 0.00 | 0.00 | 0.00 | 95 | 1011.1 |
| 20260502065127 | 71 | 244 | 0.9 | 2.6 | 0.00 | 0.00 | 0.00 | 95 | 1011.2 |
| 20260502064627 | 71 | 244 | 0.9 | 2.6 | 0.00 | 0.00 | 0.00 | 95 | 1011.3 |
| 20260502064127 | 71 | 251 | 0.9 | 1.7 | 0.00 | 0.00 | 0.00 | 95 | 1011.3 |
| 20260502063127 | 71 | 236 | 0.9 | 2.6 | 0.00 | 0.00 | 0.00 | 95 | 1011.7 |
| 20260502061527 | 70 | 235 | 0.9 | 1.7 | 0.00 | 0.00 | 0.00 | 94 | 1011.5 |
| 20260502060957 | 70 | 236 | 0.9 | 1.7 | 0.00 | 0.00 | 0.00 | 94 | 1011.6 |
| 20260502060457 | 71 | 236 | 0.9 | 1.7 | 0.00 | 0.00 | 0.00 | 93 | 1011.7 |
| 20260502055957 | 71 | 236 | 0.9 | 1.7 | 0.00 | 0.00 | 0.00 | 93 | 1011.7 |